Location: Kawakawa
(35.3830°S, 174.0670°E)
Time: 12:46:45
(UTC+13:00)

ISS - Visible Passes

Search period start: 24 January 2019 00:00
Search period end: 03 February 2019 00:00
Orbit: 404 x 410 km, 51.6° (Epoch: 24 January)

Date Brightness Start Highest point End Pass type
(mag) Time Alt. Az. Time Alt. Az. Time Alt. Az.
26 Jan -1.5 05:39:26 10° N 05:41:52 19° NE 05:44:20 10° E visible
28 Jan -3.3 05:33:11 18° NNW 05:35:26 56° NE 05:38:43 10° SE visible
29 Jan -2.2 04:44:01 26° NE 04:44:08 26° NE 04:46:59 10° ESE visible
30 Jan -3.3 05:27:29 25° WNW 05:29:06 49° SW 05:32:23 10° SE visible
31 Jan -3.3 04:38:10 61° ESE 04:38:10 61° ESE 04:41:02 10° SE visible
31 Jan -1.3 06:12:43 10° WSW 06:14:35 14° SSW 06:16:27 10° S visible
01 Feb -0.7 03:48:46 14° ESE 03:48:46 14° ESE 03:49:25 10° ESE visible
01 Feb -1.9 05:21:29 17° WSW 05:22:55 21° SSW 05:25:36 10° SSE visible
02 Feb -2.3 04:32:02 32° S 04:32:02 32° S 04:34:28 10° SSE visible
